User: anonymous   Login
Location: Berg
(47.2344°N, 9.5296°E)
Time: 21:04:12
(UTC+00:00)
Language:

BEESAT 2 - Orbit

View from above orbital plane
View from above orbital plane
View from above satellite
View from above satellite

Ground track
Ground track

The orbit data is extracted from the following two-line orbital elements,

1 39136U 13015G   21335.52549998  .00003864  00000-0  18936-3 0  9998
2 39136  64.8774  27.8738 0014022 247.2695 112.6951 15.19621403475811
Epoch (UTC): 01 December 2021 12:36:43
Eccentricity: 0.0014022
inclination: 64.8774°
perigee height: 497 km
apogee height: 516 km
right ascension of ascending node: 27.8738°
argument of perigee: 247.2695°
revolutions per day: 15.19621403
mean anomaly at epoch: 112.6951°
orbit number at epoch: 47581

The dashed part of the orbit path shows where the satellite is in the earth's shadow,  

DLR